Zurück zum Katalog

METHANESAT

AktivWissenschaftSSO
NORAD 59101·PAYLOAD·🇺🇸 United States

Gestartet Mar 4, 2024 von Vandenberg Space Force Base

Loading…

Nächste Überflüge (nächste 24 Stunden)

TLE

AktuellSource: Space-Track

Epoche: Sep 14, 2026, 14:49 UTC

1 59101U 24043D   26257.61803352  .00001219  00000-0  10707-3 0  9990
2 59101  97.8566  29.1864 0011058  71.0342 289.2077 14.98440798138046

Verfolge METHANESAT in Echtzeit mit AllMySat

Download on the App Store